User: anonymous   Login
Location: Newark
(46.2358°N, 112.1211°W)
Time: 11:35:18
(UTC+00:00)
Language:

SEEDS - Orbit

View from above orbital plane
View from above orbital plane
View from above satellite
View from above satellite

Ground track
Ground track

The orbit data is extracted from the following two-line orbital elements,

1 32791U 08021J   20184.96909273  .00000101  00000-0  15487-4 0  9994
2 32791  97.5406 178.4345 0014665  55.1879 305.0717 14.91065048660771
Epoch (UTC): 02 July 2020 23:15:29
Eccentricity: 0.0014665
inclination: 97.5406°
perigee height: 584 km
apogee height: 605 km
right ascension of ascending node: 178.4345°
argument of perigee: 55.1879°
revolutions per day: 14.91065048
mean anomaly at epoch: 305.0717°
orbit number at epoch: 66077

The dashed part of the orbit path shows where the satellite is in the earth's shadow,  

DLR